Wind_Speed
42 46 46 39 29 27 22 11 7 8 9 9 13 14 13 13 12 10 10 15 19 21 21 33 35 35 35 32 30 29 30 32 31 24 9 6 4 6 15 21 23 24 23 19 20 19 17 15 11
48 47 39 35 29 26 22 17 14 15 14 14 14 14 14 14 13 12 12 12 16 21 26 31 34 35 35 30 30 30 26 21 17 8 4 4 6 4 16 16 22 26 26 21 21 19 17 17 12
45 40 34 36 30 27 23 18 17 17 17 17 17 18 17 18 17 13 11 10 10 11 8 14 25 32 32 28 28 25 21 14 13 7 5 3 2 5 13 15 20 25 24 24 24 20 19 14 13
46 42 40 40 29 26 19 17 16 16 19 21 23 23 23 19 10 7 8 9 6 3 0 6 8 9 14 18 20 22 21 18 12 9 7 4 5 6 8 12 13 19 20 26 29 24 20 15 10
45 39 34 34 28 23 22 23 21 21 19 21 22 21 17 15 10 2 2 2 2 5 5 3 1 4 10 13 12 14 15 15 13 8 7 3 3 5 6 10 13 16 19 22 24 27 22 18 9
39 33 30 29 25 21 19 21 25 20 18 20 21 21 20 18 14 9 9 9 5 6 7 2 3 6 9 9 10 8 10 13 13 9 10 7 4 4 7 10 12 16 16 18 24 21 25 23 22
37 29 28 27 22 21 15 17 18 19 18 18 19 18 18 17 14 9 4 2 3 5 8 7 7 7 8 9 5 5 9 14 12 11 11 7 6 5 7 8 14 17 14 19 20 19 23 27 25
28 28 27 26 24 21 20 20 20 21 20 20 15 22 20 14 13 13 11 9 10 12 12 10 7 7 6 3 1 3 10 14 13 13 10 8 4 3 4 6 7 9 16 22 18 22 22 22 25
25 26 26 26 24 21 21 22 19 19 21 18 17 22 21 18 13 12 12 11 8 9 11 4 1 2 6 7 6 8 15 16 16 13 8 5 2 2 1 3 6 13 20 15 19 23 24 23 21
24 22 23 24 23 21 21 20 15 19 19 18 17 24 21 18 18 19 17 13 13 14 18 18 15 15 12 14 14 17 21 18 14 11 9 5 3 1 2 1 7 10 16 15 18 25 29 28 26
23 21 20 21 20 19 18 17 18 20 20 16 19 25 22 22 25 25 27 29 27 25 25 21 21 21 25 28 23 23 19 16 14 10 4 4 6 9 4 1 8 14 13 15 19 25 30 29 28
22 19 19 20 19 15 17 18 21 22 19 15 18 23 22 24 25 24 24 24 32 33 30 26 25 25 26 24 22 18 15 11 9 7 6 5 7 7 5 6 6 12 14 14 19 25 29 31 29
23 19 16 19 16 13 13 17 20 21 18 14 16 20 17 19 24 21 25 24 24 28 26 23 19 19 23 20 18 16 10 9 7 6 7 9 7 8 7 8 10 13 12 15 20 24 26 30 27
22 21 16 16 15 11 10 14 15 15 16 13 12 15 15 16 23 25 20 23 24 19 21 22 21 16 14 15 15 10 10 9 7 7 9 9 9 9 8 10 13 15 13 18 23 28 26 27 25
21 19 17 10 14 12 8 10 11 11 8 9 8 12 12 12 17 19 18 19 16 17 13 15 18 19 10 8 7 11 12 10 10 12 15 12 9 8 8 12 13 15 16 18 22 27 25 29 23
23 20 16 13 10 13 6 7 12 11 10 5 4 13 14 13 15 17 12 13 14 13 14 15 14 14 13 12 13 11 11 11 10 8 9 11 12 10 10 12 16 20 21 21 22 24 25 24 23
25 23 16 14 13 11 9 7 9 11 13 5 0 7 14 9 11 13 14 10 11 12 13 12 14 14 12 11 7 6 7 6 6 9 11 11 11 12 17 19 21 26 23 21 21 21 21 21 22
24 26 21 18 14 13 12 7 7 8 11 9 3 1 3 1 8 10 7 11 11 11 15 11 12 11 13 11 9 3 2 4 6 11 12 13 12 16 19 19 17 20 25 23 22 19 17 19 20
20 25 23 22 21 15 13 11 9 8 10 13 8 3 5 5 9 8 10 12 10 16 11 12 11 12 11 11 13 9 4 4 7 4 9 9 17 14 17 18 19 18 23 21 23 19 17 17 19
21 25 24 22 23 19 18 15 11 8 10 13 10 7 2 5 3 2 0 5 2 11 16 11 14 16 16 14 15 9 8 6 5 1 3 12 10 24 16 20 17 18 18 19 21 21 18 14 12
22 22 23 23 22 19 21 20 19 13 10 17 12 13 11 4 8 9 18 13 15 14 15 9 14 18 21 21 20 18 13 10 7 9 10 5 11 13 16 16 22 24 23 16 17 22 16 14 10
22 17 20 23 25 19 21 22 19 18 14 15 14 16 12 5 9 3 2 9 15 19 13 15 10 11 14 18 22 25 23 15 15 17 19 21 20 18 18 19 20 20 21 20 20 22 18 12 11
20 23 23 24 24 18 18 19 20 20 17 20 20 17 18 18 10 8 8 24 18 24 27 21 19 10 11 15 23 25 25 18 20 22 25 26 26 29 28 26 27 28 26 20 24 24 16 14 9
24 23 23 24 21 20 14 16 20 22 21 26 26 23 23 21 12 12 24 27 24 13 13 20 14 7 11 19 20 23 21 8 12 11 17 27 27 24 25 28 28 28 29 31 27 30 23 15 18
24 23 23 23 21 16 15 16 24 19 22 26 29 31 24 20 19 22 18 15 12 13 5 12 8 9 11 7 9 36 27 24 20 27 22 19 20 19 20 17 22 20 24 35 36 33 34 31 25
25 27 26 23 20 16 17 18 23 23 23 27 29 32 28 27 20 25 24 26 18 10 2 4 11 5 8 21 27 32 31 29 31 29 24 25 26 19 34 23 32 35 39 35 38 38 40 43 40
28 27 27 25 22 17 17 17 20 24 25 31 30 30 31 31 31 28 29 28 20 14 9 3 14 22 23 19 22 26 28 30 38 37 34 36 46 39 48 44 52 52 47 40 39 42 44 49 49
31 28 27 27 22 17 16 16 18 23 32 29 27 33 31 33 34 29 33 32 29 22 22 24 20 23 23 35 39 41 39 41 48 58 56 61 58 57 64 64 66 62 57 53 51 53 56 53 51
32 28 29 27 22 20 15 19 21 28 31 23 29 30 34 38 38 35 39 37 33 25 17 19 19 26 33 36 36 47 53 57 58 61 63 64 62 66 71 72 77 79 68 70 66 60 60 60 63
33 32 29 27 25 20 17 21 26 30 26 20 26 27 32 37 40 39 43 40 38 40 30 36 30 35 36 41 47 49 51 55 66 68 71 75 80 85 79 81 90 90 79 70 61 59 59 60 61
Wind_Direction
360 359 360 355 343 328 326 342 317 311 301 300 324 326 316 315 300 288 263 251 247 246 242 233 235 242 251 265 277 281 289 299 306 298 261 256 183 79 35 42 39 27 13 19 16 21 15 11 17
355 359 357 346 340 339 341 345 340 330 317 308 304 305 307 305 292 270 256 250 255 242 238 236 250 253 256 267 278 286 291 300 303 277 244 244 174 93 28 40 33 34 27 31 20 19 21 20 14
355 357 347 342 348 348 348 352 346 332 325 323 323 324 318 301 285 262 262 257 251 244 242 243 248 249 253 265 269 274 281 288 286 251 227 209 187 39 33 35 53 45 37 29 26 24 28 24 20
349 355 350 346 351 346 350 358 347 345 341 341 340 332 317 307 292 247 253 252 252 209 40 281 274 271 267 267 272 275 274 268 250 227 212 162 57 40 41 32 36 37 33 23 33 31 27 20 36
350 355 343 348 350 347 359 1 355 354 345 344 345 343 1 27 35 13 270 199 146 161 41 277 55 328 300 279 277 267 259 238 207 194 184 157 72 42 42 28 38 35 30 30 33 35 27 30 22
349 348 343 348 349 348 358 355 7 350 342 351 358 9 24 34 41 49 84 89 85 190 303 294 281 327 306 290 293 247 237 199 181 164 165 157 71 45 48 42 46 34 32 34 23 28 30 25 20
345 344 346 350 344 343 345 343 354 345 350 360 21 20 21 29 35 29 19 333 296 285 290 294 283 299 295 291 265 207 189 182 159 165 154 129 71 83 63 61 45 41 5 5 21 20 15 27 16
343 345 349 349 343 345 351 355 353 344 4 3 30 43 30 23 15 1 349 329 300 288 288 287 288 310 303 326 182 126 159 165 160 164 144 102 73 113 63 64 30 15 2 359 16 8 17 359 2
346 344 346 345 341 350 354 357 346 356 12 9 36 48 35 17 6 349 334 325 317 298 293 273 70 29 82 66 82 108 125 134 145 159 131 101 65 187 164 35 352 345 359 1 358 4 5 4 357
344 340 341 339 338 349 358 359 352 8 14 16 38 50 36 32 26 33 41 67 75 73 84 86 88 89 79 75 88 101 115 130 131 119 90 94 36 349 235 281 336 338 359 353 348 356 3 7 3
339 336 334 338 345 349 360 359 10 5 15 22 42 48 47 43 50 56 68 81 80 81 86 91 92 90 91 83 87 104 114 114 110 97 95 66 45 32 33 340 345 332 331 347 349 3 359 360 6
338 333 331 341 342 351 5 3 14 5 8 29 55 55 54 54 60 59 70 82 87 84 87 88 92 97 94 87 79 89 95 97 103 92 62 21 29 38 37 25 358 344 338 336 344 355 354 352 1
333 330 337 331 336 351 2 5 11 0 358 29 58 77 66 61 71 67 58 69 83 92 83 75 74 88 90 97 92 91 96 89 65 49 25 12 14 10 11 3 344 341 334 341 350 349 348 351 354
320 325 332 319 326 334 355 8 1 3 350 22 59 88 88 71 67 67 64 63 69 93 73 63 63 63 82 83 84 64 83 91 71 33 14 4 356 353 348 343 343 350 351 344 348 353 347 352 1
306 314 318 308 309 314 338 351 357 5 345 1 75 93 96 90 86 78 64 48 54 64 65 53 55 67 74 74 70 76 80 79 67 62 38 23 10 5 351 343 350 1 359 350 350 350 348 346 359
296 296 297 302 282 290 312 353 347 2 332 332 100 104 104 99 85 77 80 58 58 61 73 70 67 60 60 63 70 67 71 80 80 60 31 27 14 13 8 354 348 348 342 343 336 343 344 348 354
285 288 296 298 293 281 295 332 343 347 324 307 189 124 101 101 90 80 67 73 68 77 61 63 71 66 62 53 53 52 46 25 32 23 10 357 350 348 343 340 342 341 336 331 335 335 335 345 354
275 284 294 297 287 278 283 296 324 318 296 278 281 101 135 78 86 91 60 36 40 47 30 50 41 46 43 32 25 40 24 16 334 5 348 323 336 322 330 337 335 337 337 335 341 342 334 342 344
262 270 278 285 287 278 273 275 286 284 262 258 247 196 36 129 68 84 69 72 63 19 14 13 12 10 11 10 7 10 47 48 341 354 307 319 329 326 315 309 317 324 325 333 340 338 335 342 341
248 254 264 274 282 287 289 286 273 283 244 233 221 247 218 167 59 80 356 90 63 335 347 7 355 347 346 350 351 340 319 332 346 303 267 323 344 303 314 310 316 307 316 319 330 340 343 335 343
257 259 264 272 279 285 283 284 288 289 263 233 230 244 276 255 306 244 305 285 279 314 319 327 334 335 335 337 338 327 308 286 263 216 218 219 238 271 282 285 301 316 323 313 321 326 331 325 305
265 265 262 265 269 269 269 275 282 280 282 270 243 232 242 171 126 144 233 297 288 303 303 288 288 312 315 320 318 317 307 276 258 253 250 247 237 237 246 256 271 289 291 294 310 309 316 307 278
255 244 247 251 257 258 268 274 277 278 282 278 268 231 226 207 207 238 303 270 288 305 293 279 279 289 285 295 304 305 294 280 274 274 270 265 261 256 253 254 264 275 286 293 292 293 304 307 275
271 266 264 264 267 275 260 262 268 272 274 270 268 249 234 213 210 256 288 248 287 298 279 285 274 282 307 335 322 299 271 276 311 319 294 273 264 255 262 266 269 278 282 277 275 280 277 281 258
275 273 273 271 269 272 267 255 258 267 263 262 262 254 241 234 215 238 267 261 259 271 285 321 283 276 275 304 301 285 265 254 295 319 309 302 279 261 285 286 306 295 309 298 280 269 272 266 250
280 270 265 272 268 261 258 254 253 254 254 253 255 251 245 239 233 236 249 249 258 246 335 264 246 247 206 209 248 252 269 247 282 309 299 304 301 270 310 282 300 301 305 298 292 284 263 263 260
271 273 272 270 273 266 262 265 265 258 252 248 254 257 247 245 245 235 239 242 236 235 254 279 276 251 248 242 239 247 260 269 284 299 293 302 305 305 306 303 302 306 303 279 285 281 281 266 260
270 270 272 269 273 277 266 264 266 257 251 253 252 254 253 247 242 237 241 237 251 253 256 273 282 269 257 255 250 267 273 276 284 290 293 300 305 304 303 306 309 307 299 290 285 275 272 272 263
263 268 268 271 266 269 267 263 264 255 256 258 255 249 245 245 240 236 240 249 254 247 256 275 265 262 254 257 272 276 277 277 279 287 294 298 299 299 302 307 308 308 305 299 292 278 272 265 260
261 261 265 266 262 263 269 262 260 263 266 265 260 251 240 236 242 237 241 248 256 251 239 242 252 248 255 259 262 270 281 286 295 293 291 294 291 288 297 301 305 304 302 297 284 272 266 261 254
Height
10991 10985 10980 10976 10973 10970 10966 10963 10960 10956 10955 10952 10950 10949 10947 10945 10944 10943 10943 10944 10946 10949 10950 10947 10948 10948 10950 10951 10950 10949 10949 10948 10947 10945 10945 10946 10945 10946 10943 10941 10938 10934 10931 10927 10924 10921 10918 10916 10915
10988 10982 10979 10977 10973 10968 10963 10960 10956 10954 10952 10950 10948 10945 10943 10941 10940 10939 10939 10940 10941 10944 10945 10945 10943 10944 10946 10946 10946 10945 10945 10946 10946 10945 10945 10946 10945 10944 10944 10942 10939 10935 10930 10929 10926 10922 10919 10918 10916
10989 10984 10981 10977 10970 10964 10961 10958 10955 10951 10948 10946 10944 10941 10939 10936 10935 10935 10935 10937 10938 10940 10941 10941 10940 10940 10941 10942 10942 10942 10942 10943 10944 10944 10944 10946 10946 10946 10945 10943 10940 10935 10933 10931 10927 10922 10920 10918 10918
10989 10983 10977 10972 10968 10964 10962 10959 10956 10951 10946 10944 10942 10938 10935 10932 10930 10932 10933 10934 10935 10937 10938 10938 10938 10937 10938 10939 10939 10939 10939 10940 10941 10943 10944 10945 10946 10945 10945 10943 10941 10938 10934 10932 10928 10924 10921 10919 10919
10984 10980 10976 10971 10968 10964 10960 10957 10953 10949 10946 10944 10941 10937 10933 10931 10929 10930 10931 10932 10934 10935 10936 10936 10935 10936 10936 10935 10934 10934 10935 10937 10940 10942 10943 10946 10946 10946 10945 10944 10942 10940 10937 10934 10930 10927 10924 10923 10921
10985 10981 10978 10972 10968 10965 10963 10959 10954 10950 10947 10944 10941 10937 10935 10932 10931 10930 10930 10930 10931 10932 10932 10932 10933 10934 10934 10933 10932 10931 10932 10936 10939 10942 10944 10946 10947 10946 10946 10945 10942 10941 10939 10937 10934 10930 10927 10925 10923
10986 10981 10977 10973 10970 10967 10965 10962 10959 10955 10949 10945 10942 10939 10937 10933 10932 10929 10928 10928 10928 10928 10928 10929 10931 10933 10932 10931 10930 10930 10931 10935 10940 10943 10945 10946 10947 10947 10947 10946 10944 10942 10940 10940 10937 10932 10929 10927 10924
10984 10979 10976 10972 10970 10969 10965 10962 10959 10955 10950 10946 10944 10941 10938 10935 10932 10929 10927 10925 10924 10924 10925 10927 10929 10931 10930 10930 10930 10930 10931 10936 10941 10944 10946 10948 10948 10948 10947 10947 10946 10944 10941 10940 10939 10935 10931 10927 10924
10983 10977 10974 10972 10969 10967 10963 10961 10958 10954 10950 10949 10945 10942 10940 10937 10932 10928 10924 10923 10922 10922 10921 10924 10928 10929 10930 10930 10930 10931 10934 10938 10941 10945 10947 10948 10949 10948 10948 10948 10947 10945 10944 10941 10939 10936 10933 10930 10925
10984 10978 10973 10971 10968 10966 10963 10961 10959 10955 10953 10950 10946 10944 10942 10939 10934 10927 10923 10922 10923 10923 10923 10925 10928 10930 10932 10932 10933 10935 10937 10940 10944 10947 10949 10950 10950 10949 10949 10949 10947 10946 10945 10942 10940 10937 10933 10930 10926
10983 10979 10974 10973 10969 10966 10964 10963 10960 10957 10955 10954 10949 10947 10946 10942 10937 10932 10929 10927 10926 10926 10928 10930 10931 10933 10934 10935 10937 10939 10941 10944 10947 10948 10950 10951 10951 10950 10948 10948 10948 10947 10945 10943 10940 10938 10935 10930 10927
10982 10979 10974 10972 10970 10967 10965 10962 10961 10960 10959 10956 10952 10950 10950 10947 10942 10937 10935 10934 10931 10932 10934 10935 10936 10937 10938 10938 10941 10943 10945 10947 10949 10950 10951 10951 10951 10950 10949 10948 10948 10947 10945 10943 10941 10939 10935 10931 10928
10978 10977 10974 10972 10969 10967 10967 10966 10963 10962 10961 10958 10955 10953 10954 10951 10947 10943 10941 10939 10939 10939 10941 10942 10942 10941 10941 10942 10944 10945 10948 10949 10950 10951 10951 10951 10950 10950 10950 10949 10949 10947 10946 10944 10942 10939 10935 10931 10928
10975 10975 10973 10972 10970 10967 10967 10968 10966 10964 10963 10959 10956 10954 10955 10953 10950 10946 10946 10945 10945 10947 10947 10946 10945 10945 10946 10946 10947 10948 10948 10949 10950 10951 10951 10951 10950 10950 10950 10950 10949 10948 10946 10944 10941 10938 10935 10932 10928
10974 10973 10972 10972 10969 10967 10968 10968 10968 10966 10963 10960 10958 10957 10957 10955 10950 10948 10949 10949 10949 10950 10949 10949 10949 10949 10949 10950 10951 10951 10950 10951 10951 10952 10951 10950 10950 10950 10950 10949 10948 10947 10946 10944 10941 10937 10935 10932 10928
10970 10971 10971 10969 10968 10968 10968 10967 10967 10965 10962 10962 10960 10958 10957 10958 10955 10950 10950 10952 10955 10954 10953 10952 10951 10950 10951 10952 10952 10953 10952 10951 10951 10951 10951 10951 10950 10950 10949 10948 10947 10944 10943 10941 10940 10938 10934 10933 10930
10964 10966 10967 10967 10966 10966 10967 10967 10967 10964 10961 10961 10961 10959 10958 10957 10956 10955 10954 10954 10955 10955 10956 10954 10952 10952 10953 10953 10953 10953 10953 10953 10951 10951 10950 10950 10950 10951 10950 10947 10945 10943 10942 10940 10939 10937 10936 10933 10931
10962 10959 10960 10961 10962 10963 10964 10965 10966 10964 10962 10961 10962 10961 10957 10956 10957 10955 10955 10955 10955 10955 10955 10954 10954 10954 10953 10953 10954 10953 10953 10955 10955 10952 10950 10950 10949 10949 10949 10947 10944 10943 10942 10940 10938 10936 10935 10933 10931
10960 10957 10957 10958 10957 10959 10961 10962 10963 10963 10962 10961 10963 10961 10958 10957 10956 10957 10957 10955 10955 10955 10955 10955 10953 10953 10952 10953 10955 10955 10954 10953 10952 10952 10951 10951 10950 10949 10947 10945 10943 10940 10941 10941 10940 10937 10935 10933 10931
10957 10955 10956 10957 10954 10955 10955 10956 10960 10961 10960 10960 10962 10959 10959 10959 10957 10957 10957 10956 10956 10957 10956 10955 10954 10953 10953 10953 10953 10955 10954 10953 10952 10953 10953 10953 10941 10948 10946 10943 10941 10939 10940 10940 10939 10937 10935 10932 10932
10952 10953 10954 10955 10954 10954 10952 10952 10954 10958 10958 10958 10960 10958 10957 10958 10955 10955 10956 10954 10954 10952 10953 10953 10952 10952 10952 10951 10952 10952 10953 10951 10951 10954 10954 10952 10951 10949 10945 10942 10939 10939 10939 10939 10937 10937 10935 10933 10930
10949 10951 10950 10950 10950 10952 10950 10950 10951 10953 10954 10953 10953 10953 10951 10952 10950 10950 10949 10950 10952 10951 10950 10950 10950 10949 10949 10949 10951 10953 10951 10949 10947 10947 10948 10950 10948 10945 10943 10942 10938 10938 10939 10937 10935 10934 10933 10930 10928
10944 10943 10943 10944 10944 10948 10948 10949 10947 10947 10949 10946 10946 10947 10946 10944 10944 10947 10951 10949 10948 10949 10947 10946 10946 10948 10946 10948 10950 10950 10949 10946 10944 10943 10943 10943 10941 10939 10937 10934 10933 10932 10932 10934 10933 10933 10930 10929 10927
10939 10939 10940 10940 10943 10944 10946 10947 10943 10944 10945 10941 10941 10942 10941 10942 10946 10949 10947 10947 10947 10945 10943 10940 10941 10940 10943 10946 10948 10948 10945 10942 10939 10936 10936 10936 10934 10933 10933 10931 10929 10929 10929 10928 10928 10927 10926 10925 10924
10933 10934 10935 10936 10938 10941 10942 10941 10940 10942 10940 10938 10936 10935 10938 10941 10943 10944 10946 10945 10942 10941 10939 10935 10933 10933 10934 10942 10943 10944 10938 10936 10932 10931 10930 10930 10928 10925 10924 10924 10924 10920 10920 10921 10920 10919 10917 10917 10916
10927 10927 10928 10930 10932 10935 10936 10937 10936 10937 10936 10932 10931 10930 10933 10935 10940 10940 10941 10939 10936 10936 10930 10932 10929 10932 10927 10923 10937 10932 10927 10926 10925 10924 10925 10925 10924 10920 10921 10916 10914 10912 10910 10907 10908 10908 10907 10906 10905
10920 10920 10921 10925 10927 10929 10930 10932 10931 10930 10930 10925 10926 10925 10927 10929 10932 10936 10934 10931 10934 10928 10927 10926 10925 10925 10922 10919 10919 10918 10917 10917 10916 10912 10912 10914 10911 10910 10908 10907 10903 10900 10897 10894 10894 10895 10894 10892 10891
10913 10914 10915 10918 10922 10924 10925 10924 10923 10923 10919 10922 10922 10918 10920 10921 10926 10928 10927 10927 10925 10922 10919 10918 10919 10917 10917 10918 10916 10912 10911 10908 10906 10903 10898 10897 10894 10893 10892 10888 10886 10882 10878 10875 10875 10877 10876 10877 10876
10906 10909 10909 10911 10915 10916 10918 10917 10915 10912 10913 10920 10915 10914 10914 10914 10916 10920 10919 10920 10920 10917 10915 10915 10914 10913 10914 10913 10911 10907 10901 10897 10893 10890 10887 10884 10878 10876 10874 10867 10862 10861 10856 10855 10852 10851 10852 10853 10855
10902 10902 10904 10906 10908 10912 10914 10911 10909 10907 10910 10913 10907 10905 10906 10908 10909 10912 10912 10911 10913 10912 10911 10909 10906 10903 10901 10897 10894 10891 10886 10882 10879 10874 10864 10864 10866 10858 10852 10849 10843 10838 10832 10826 10827 10826 10826 10829 10833